contact:dominique.lefevre@mio.osupytheas.fr, maurice.libes@osupytheas.fr, didier.mallarino@osupytheas.fr
Project:EMSO http://www.emso-fr.org/EMSO-France
Depth: 2436.0 m
Title:EMSO Ligure Ouest : Data MII capteur MICROCAT
DateTime_Computer,Latitude,Longitude,Temperature,Conductivity,Pressure,DateTime_Instrument
DateTime_Computer,Latitude,Longitude,degC,S m-1,dbar,DateTime_Instrument
2022-12-29T00:01:09Z,42.805,6.029,13.3041,4.60097,2470.661,2022-12-29T02:07:11Z
2022-12-29T00:04:12Z,42.805,6.029,13.3034,4.60098,2470.646,2022-12-29T02:10:14Z
2022-12-29T00:07:15Z,42.805,6.029,13.3031,4.60103,2470.661,2022-12-29T02:13:18Z
2022-12-29T00:10:18Z,42.805,6.029,13.3037,4.60092,2470.637,2022-12-29T02:16:21Z
2022-12-29T00:13:21Z,42.805,6.029,13.3034,4.60125,2470.624,2022-12-29T02:19:24Z
2022-12-29T00:16:25Z,42.805,6.029,13.3038,4.60120,2470.67,2022-12-29T02:22:27Z
2022-12-29T00:19:28Z,42.805,6.029,13.3024,4.60078,2470.624,2022-12-29T02:25:30Z
2022-12-29T00:22:31Z,42.805,6.029,13.3029,4.60094,2470.624,2022-12-29T02:28:33Z
2022-12-29T00:25:34Z,42.805,6.029,13.3020,4.60069,2470.624,2022-12-29T02:31:36Z
2022-12-29T00:28:37Z,42.805,6.029,13.3037,4.60108,2470.624,2022-12-29T02:34:39Z
2022-12-29T00:31:40Z,42.805,6.029,13.3024,4.60094,2470.637,2022-12-29T02:37:42Z
2022-12-29T00:34:43Z,42.805,6.029,13.3022,4.60085,2470.637,2022-12-29T02:40:45Z
2022-12-29T00:37:46Z,42.805,6.029,13.3034,4.60080,2470.624,2022-12-29T02:43:48Z
2022-12-29T00:40:49Z,42.805,6.029,13.3024,4.60095,2470.646,2022-12-29T02:46:52Z
2022-12-29T00:43:52Z,42.805,6.029,13.3029,4.60084,2470.6,2022-12-29T02:49:55Z
2022-12-29T00:46:55Z,42.805,6.029,13.3037,4.60097,2470.614,2022-12-29T02:52:58Z
2022-12-29T00:49:59Z,42.805,6.029,13.3035,4.60092,2470.637,2022-12-29T02:56:01Z
2022-12-29T00:53:02Z,42.805,6.029,13.3046,4.60081,2470.661,2022-12-29T02:59:04Z
2022-12-29T00:56:05Z,42.805,6.029,13.3026,4.60084,2470.624,2022-12-29T03:02:07Z
2022-12-29T00:59:08Z,42.805,6.029,13.3041,4.60103,2470.637,2022-12-29T03:05:10Z
2022-12-29T01:02:11Z,42.805,6.029,13.3036,4.60090,2470.637,2022-12-29T03:08:13Z
2022-12-29T01:05:14Z,42.805,6.029,13.3029,4.60102,2470.614,2022-12-29T03:11:16Z
2022-12-29T01:08:17Z,42.805,6.029,13.3029,4.60110,2470.6,2022-12-29T03:14:19Z
2022-12-29T01:11:20Z,42.805,6.029,13.3033,4.60104,2470.614,2022-12-29T03:17:22Z
2022-12-29T01:14:23Z,42.805,6.029,13.3026,4.60106,2470.6,2022-12-29T03:20:25Z
2022-12-29T01:17:26Z,42.805,6.029,13.3038,4.60097,2470.6,2022-12-29T03:23:29Z
2022-12-29T01:20:29Z,42.805,6.029,13.3036,4.60108,2470.661,2022-12-29T03:26:32Z
2022-12-29T01:23:32Z,42.805,6.029,13.3034,4.60086,2470.637,2022-12-29T03:29:35Z
2022-12-29T01:26:36Z,42.805,6.029,13.3031,4.60094,2470.624,2022-12-29T03:32:38Z
2022-12-29T01:29:39Z,42.805,6.029,13.3041,4.60094,2470.624,2022-12-29T03:35:41Z
2022-12-29T01:32:42Z,42.805,6.029,13.3034,4.60115,2470.614,2022-12-29T03:38:44Z
2022-12-29T01:35:45Z,42.805,6.029,13.3035,4.60111,2470.6,2022-12-29T03:41:47Z
2022-12-29T01:38:48Z,42.805,6.029,13.3034,4.60079,2470.6,2022-12-29T03:44:50Z
2022-12-29T01:41:51Z,42.805,6.029,13.3031,4.60094,2470.6,2022-12-29T03:47:53Z
2022-12-29T01:44:54Z,42.805,6.029,13.3021,4.60086,2470.591,2022-12-29T03:50:56Z
2022-12-29T01:47:57Z,42.805,6.029,13.3036,4.60111,2470.637,2022-12-29T03:53:59Z
2022-12-29T01:51:00Z,42.805,6.029,13.3034,4.60106,2470.6,2022-12-29T03:57:03Z
2022-12-29T01:54:03Z,42.805,6.029,13.3035,4.60114,2470.637,2022-12-29T04:00:06Z
2022-12-29T01:57:06Z,42.805,6.029,13.3038,4.60103,2470.646,2022-12-29T04:03:09Z
2022-12-29T02:00:10Z,42.805,6.029,13.3034,4.60110,2470.6,2022-12-29T04:06:12Z
2022-12-29T02:03:13Z,42.805,6.029,13.3034,4.60078,2470.624,2022-12-29T04:09:15Z
2022-12-29T02:06:16Z,42.805,6.029,13.3034,4.60087,2470.637,2022-12-29T04:12:18Z
2022-12-29T02:09:19Z,42.805,6.029,13.3038,4.60114,2470.637,2022-12-29T04:15:21Z
2022-12-29T02:12:22Z,42.805,6.029,13.3036,4.60122,2470.6,2022-12-29T04:18:24Z
2022-12-29T02:15:25Z,42.805,6.029,13.3034,4.60092,2470.614,2022-12-29T04:21:27Z
2022-12-29T02:18:28Z,42.805,6.029,13.3036,4.60089,2470.6,2022-12-29T04:24:30Z
2022-12-29T02:21:31Z,42.805,6.029,13.3040,4.60093,2470.591,2022-12-29T04:27:33Z
2022-12-29T02:24:34Z,42.805,6.029,13.3031,4.60110,2470.614,2022-12-29T04:30:37Z
2022-12-29T02:27:37Z,42.805,6.029,13.3041,4.60087,2470.614,2022-12-29T04:33:40Z
2022-12-29T02:30:40Z,42.805,6.029,13.3031,4.60091,2470.614,2022-12-29T04:36:43Z
2022-12-29T02:33:43Z,42.805,6.029,13.3038,4.60097,2470.6,2022-12-29T04:39:46Z
2022-12-29T02:36:47Z,42.805,6.029,13.3034,4.60086,2470.6,2022-12-29T04:42:49Z
2022-12-29T02:39:50Z,42.805,6.029,13.3030,4.60103,2470.614,2022-12-29T04:45:52Z
2022-12-29T02:42:53Z,42.805,6.029,13.3032,4.60094,2470.637,2022-12-29T04:48:55Z
2022-12-29T02:45:56Z,42.805,6.029,13.3034,4.60088,2470.614,2022-12-29T04:51:58Z
2022-12-29T02:48:59Z,42.805,6.029,13.3034,4.60104,2470.637,2022-12-29T04:55:01Z
2022-12-29T02:52:02Z,42.805,6.029,13.3029,4.60104,2470.591,2022-12-29T04:58:04Z
2022-12-29T02:55:05Z,42.805,6.029,13.3035,4.60119,2470.614,2022-12-29T05:01:07Z
2022-12-29T02:58:08Z,42.805,6.029,13.3036,4.60097,2470.6,2022-12-29T05:04:11Z
2022-12-29T03:01:11Z,42.805,6.029,13.3024,4.60084,2470.577,2022-12-29T05:07:14Z
2022-12-29T03:04:14Z,42.805,6.029,13.3024,4.60089,2470.591,2022-12-29T05:10:17Z
2022-12-29T03:07:17Z,42.805,6.029,13.3034,4.60092,2470.6,2022-12-29T05:13:20Z
2022-12-29T03:10:21Z,42.805,6.029,13.3033,4.60082,2470.6,2022-12-29T05:16:23Z
2022-12-29T03:13:24Z,42.805,6.029,13.3035,4.60109,2470.577,2022-12-29T05:19:26Z
2022-12-29T03:16:27Z,42.805,6.029,13.3030,4.60078,2470.567,2022-12-29T05:22:29Z
2022-12-29T03:19:30Z,42.805,6.029,13.3038,4.60088,2470.577,2022-12-29T05:25:32Z
2022-12-29T03:22:33Z,42.805,6.029,13.3019,4.60071,2470.6,2022-12-29T05:28:35Z
2022-12-29T03:25:36Z,42.805,6.029,13.3023,4.60072,2470.614,2022-12-29T05:31:38Z
2022-12-29T03:28:39Z,42.805,6.029,13.3025,4.60077,2470.614,2022-12-29T05:34:41Z
2022-12-29T03:31:42Z,42.805,6.029,13.3031,4.60082,2470.6,2022-12-29T05:37:45Z
2022-12-29T03:34:45Z,42.805,6.029,13.3026,4.60079,2470.577,2022-12-29T05:40:48Z
2022-12-29T03:37:48Z,42.805,6.029,13.3018,4.60074,2470.614,2022-12-29T05:43:51Z
2022-12-29T03:40:51Z,42.805,6.029,13.3019,4.60079,2470.591,2022-12-29T05:46:54Z
2022-12-29T03:43:54Z,42.805,6.029,13.3039,4.60091,2470.614,2022-12-29T05:49:57Z
2022-12-29T03:46:58Z,42.805,6.029,13.3034,4.60089,2470.567,2022-12-29T05:53:00Z
2022-12-29T03:50:01Z,42.805,6.029,13.3036,4.60085,2470.591,2022-12-29T05:56:03Z
2022-12-29T03:53:04Z,42.805,6.029,13.3025,4.60084,2470.6,2022-12-29T05:59:06Z
2022-12-29T03:56:07Z,42.805,6.029,13.3042,4.60087,2470.591,2022-12-29T06:02:09Z
2022-12-29T03:59:10Z,42.805,6.029,13.3037,4.60088,2470.553,2022-12-29T06:05:12Z
2022-12-29T04:02:13Z,42.805,6.029,13.3032,4.60092,2470.614,2022-12-29T06:08:15Z
2022-12-29T04:05:16Z,42.805,6.029,13.3036,4.60093,2470.567,2022-12-29T06:11:18Z
2022-12-29T04:08:19Z,42.805,6.029,13.3041,4.60085,2470.577,2022-12-29T06:14:22Z
2022-12-29T04:11:22Z,42.805,6.029,13.3032,4.60087,2470.6,2022-12-29T06:17:25Z
2022-12-29T04:14:25Z,42.805,6.029,13.3029,4.60077,2470.6,2022-12-29T06:20:28Z
2022-12-29T04:17:28Z,42.805,6.029,13.3028,4.60107,2470.553,2022-12-29T06:23:31Z
2022-12-29T04:20:32Z,42.805,6.029,13.3031,4.60081,2470.591,2022-12-29T06:26:34Z
2022-12-29T04:23:35Z,42.805,6.029,13.3034,4.60079,2470.577,2022-12-29T06:29:37Z
2022-12-29T04:26:38Z,42.805,6.029,13.3036,4.60102,2470.591,2022-12-29T06:32:40Z
2022-12-29T04:29:41Z,42.805,6.029,13.3027,4.60102,2470.577,2022-12-29T06:35:43Z
2022-12-29T04:32:44Z,42.805,6.029,13.3029,4.60089,2470.577,2022-12-29T06:38:46Z
2022-12-29T04:35:47Z,42.805,6.029,13.3039,4.60104,2470.539,2022-12-29T06:41:49Z
2022-12-29T04:38:50Z,42.805,6.029,13.3039,4.60091,2470.591,2022-12-29T06:44:52Z
2022-12-29T04:41:53Z,42.805,6.029,13.3039,4.60091,2470.567,2022-12-29T06:47:56Z
2022-12-29T04:44:56Z,42.805,6.029,13.3038,4.60099,2470.591,2022-12-29T06:50:59Z
2022-12-29T04:47:59Z,42.805,6.029,13.3043,4.60121,2470.577,2022-12-29T06:54:02Z
2022-12-29T04:51:02Z,42.805,6.029,13.3034,4.60099,2470.553,2022-12-29T06:57:05Z
2022-12-29T04:54:05Z,42.805,6.029,13.3042,4.60115,2470.591,2022-12-29T07:00:08Z
2022-12-29T04:57:09Z,42.805,6.029,13.3029,4.60102,2470.567,2022-12-29T07:03:11Z
2022-12-29T05:00:12Z,42.805,6.029,13.3038,4.60094,2470.553,2022-12-29T07:06:14Z
2022-12-29T05:03:15Z,42.805,6.029,13.3023,4.60095,2470.6,2022-12-29T07:09:17Z
2022-12-29T05:06:18Z,42.805,6.029,13.3034,4.60087,2470.577,2022-12-29T07:12:20Z
2022-12-29T05:09:21Z,42.805,6.029,13.3031,4.60103,2470.577,2022-12-29T07:15:23Z
2022-12-29T05:12:24Z,42.805,6.029,13.3025,4.60092,2470.53,2022-12-29T07:18:26Z
2022-12-29T05:15:27Z,42.805,6.029,13.3047,4.60115,2470.553,2022-12-29T07:21:30Z
2022-12-29T05:18:30Z,42.805,6.029,13.3034,4.60112,2470.567,2022-12-29T07:24:33Z
2022-12-29T05:21:33Z,42.805,6.029,13.3034,4.60096,2470.591,2022-12-29T07:27:36Z
2022-12-29T05:24:36Z,42.805,6.029,13.3034,4.60125,2470.591,2022-12-29T07:30:39Z
2022-12-29T05:27:39Z,42.805,6.029,13.3045,4.60081,2470.567,2022-12-29T07:33:42Z
2022-12-29T05:30:43Z,42.805,6.029,13.3027,4.60095,2470.553,2022-12-29T07:36:45Z
2022-12-29T05:33:46Z,42.805,6.029,13.3029,4.60090,2470.553,2022-12-29T07:39:48Z
2022-12-29T05:36:49Z,42.805,6.029,13.3030,4.60097,2470.577,2022-12-29T07:42:51Z
2022-12-29T05:39:52Z,42.805,6.029,13.3028,4.60097,2470.553,2022-12-29T07:45:54Z
2022-12-29T05:42:55Z,42.805,6.029,13.3019,4.60071,2470.577,2022-12-29T07:48:57Z
2022-12-29T05:45:58Z,42.805,6.029,13.3027,4.60084,2470.591,2022-12-29T07:52:00Z
2022-12-29T05:49:01Z,42.805,6.029,13.3032,4.60091,2470.553,2022-12-29T07:55:03Z
2022-12-29T05:52:04Z,42.805,6.029,13.3031,4.60097,2470.553,2022-12-29T07:58:07Z
2022-12-29T05:55:07Z,42.805,6.029,13.3034,4.60117,2470.567,2022-12-29T08:01:10Z
2022-12-29T05:58:10Z,42.805,6.029,13.3026,4.60104,2470.591,2022-12-29T08:04:13Z
2022-12-29T06:01:13Z,42.805,6.029,13.3026,4.60102,2470.553,2022-12-29T08:07:16Z
2022-12-29T06:04:16Z,42.805,6.029,13.3036,4.60087,2470.577,2022-12-29T08:10:19Z
2022-12-29T06:07:20Z,42.805,6.029,13.3031,4.60092,2470.577,2022-12-29T08:13:22Z
2022-12-29T06:10:23Z,42.805,6.029,13.3039,4.60081,2470.591,2022-12-29T08:16:25Z
2022-12-29T06:13:26Z,42.805,6.029,13.3032,4.60085,2470.567,2022-12-29T08:19:28Z
2022-12-29T06:16:29Z,42.805,6.029,13.3021,4.60075,2470.553,2022-12-29T08:22:31Z
2022-12-29T06:19:32Z,42.805,6.029,13.3023,4.60072,2470.577,2022-12-29T08:25:34Z
2022-12-29T06:22:35Z,42.805,6.029,13.3042,4.60084,2470.591,2022-12-29T08:28:37Z
2022-12-29T06:25:38Z,42.805,6.029,13.3034,4.60078,2470.553,2022-12-29T08:31:41Z
2022-12-29T06:28:41Z,42.805,6.029,13.3025,4.60079,2470.553,2022-12-29T08:34:44Z
2022-12-29T06:31:44Z,42.805,6.029,13.3026,4.60083,2470.567,2022-12-29T08:37:47Z
2022-12-29T06:34:47Z,42.805,6.029,13.3019,4.60077,2470.553,2022-12-29T08:40:50Z
2022-12-29T06:37:50Z,42.805,6.029,13.3026,4.60073,2470.553,2022-12-29T08:43:53Z
2022-12-29T06:40:53Z,42.805,6.029,13.3018,4.60066,2470.577,2022-12-29T08:46:56Z
2022-12-29T06:43:57Z,42.805,6.029,13.3020,4.60068,2470.577,2022-12-29T08:49:59Z
2022-12-29T06:47:00Z,42.805,6.029,13.3033,4.60079,2470.577,2022-12-29T08:53:02Z
2022-12-29T06:50:03Z,42.805,6.029,13.3017,4.60067,2470.591,2022-12-29T08:56:05Z
2022-12-29T06:53:06Z,42.805,6.029,13.3017,4.60066,2470.586,2022-12-29T08:59:08Z
2022-12-29T06:56:09Z,42.805,6.029,13.3029,4.60069,2470.577,2022-12-29T09:02:11Z
2022-12-29T06:59:12Z,42.805,6.029,13.3029,4.60070,2470.6,2022-12-29T09:05:14Z
2022-12-29T07:02:15Z,42.805,6.029,13.3035,4.60078,2470.614,2022-12-29T09:08:18Z
2022-12-29T07:05:18Z,42.805,6.029,13.3035,4.60091,2470.577,2022-12-29T09:11:21Z
2022-12-29T07:08:21Z,42.805,6.029,13.3031,4.60087,2470.577,2022-12-29T09:14:24Z
2022-12-29T07:11:24Z,42.805,6.029,13.3034,4.60092,2470.577,2022-12-29T09:17:27Z
2022-12-29T07:14:27Z,42.805,6.029,13.3044,4.60081,2470.637,2022-12-29T09:20:30Z
2022-12-29T07:17:31Z,42.805,6.029,13.3020,4.60070,2470.6,2022-12-29T09:23:33Z
2022-12-29T07:20:34Z,42.805,6.029,13.3021,4.60076,2470.577,2022-12-29T09:26:36Z
2022-12-29T07:23:37Z,42.805,6.029,13.3024,4.60078,2470.577,2022-12-29T09:29:39Z
2022-12-29T07:26:40Z,42.805,6.029,13.3025,4.60079,2470.577,2022-12-29T09:32:42Z
2022-12-29T07:29:43Z,42.805,6.029,13.3036,4.60072,2470.6,2022-12-29T09:35:45Z
2022-12-29T07:32:46Z,42.805,6.029,13.3041,4.60090,2470.591,2022-12-29T09:38:48Z
2022-12-29T07:35:49Z,42.805,6.029,13.3030,4.60075,2470.577,2022-12-29T09:41:52Z
2022-12-29T07:38:52Z,42.805,6.029,13.3026,4.60072,2470.591,2022-12-29T09:44:55Z
2022-12-29T07:41:55Z,42.805,6.029,13.3014,4.60067,2470.6,2022-12-29T09:47:58Z
2022-12-29T07:44:58Z,42.805,6.029,13.3017,4.60069,2470.591,2022-12-29T09:51:01Z
2022-12-29T07:48:01Z,42.805,6.029,13.3015,4.60067,2470.614,2022-12-29T09:54:04Z
2022-12-29T07:51:04Z,42.805,6.029,13.3022,4.60078,2470.6,2022-12-29T09:57:07Z
2022-12-29T07:54:08Z,42.805,6.029,13.3015,4.60067,2470.637,2022-12-29T10:00:10Z
2022-12-29T07:57:11Z,42.805,6.029,13.3017,4.60069,2470.624,2022-12-29T10:03:13Z
2022-12-29T08:00:14Z,42.805,6.029,13.3017,4.60067,2470.624,2022-12-29T10:06:16Z
2022-12-29T08:03:17Z,42.805,6.029,13.3017,4.60067,2470.624,2022-12-29T10:09:19Z
2022-12-29T08:06:20Z,42.805,6.029,13.3015,4.60067,2470.637,2022-12-29T10:12:22Z
2022-12-29T08:09:23Z,42.805,6.029,13.3015,4.60068,2470.637,2022-12-29T10:15:26Z
2022-12-29T08:12:26Z,42.805,6.029,13.3024,4.60081,2470.661,2022-12-29T10:18:29Z
2022-12-29T08:15:29Z,42.805,6.029,13.3019,4.60069,2470.646,2022-12-29T10:21:32Z
2022-12-29T08:18:32Z,42.805,6.029,13.3018,4.60069,2470.646,2022-12-29T10:24:35Z
2022-12-29T08:21:35Z,42.805,6.029,13.3015,4.60067,2470.661,2022-12-29T10:27:38Z
2022-12-29T08:24:38Z,42.805,6.029,13.3014,4.60067,2470.646,2022-12-29T10:30:41Z
2022-12-29T08:27:42Z,42.805,6.029,13.3019,4.60067,2470.646,2022-12-29T10:33:44Z
2022-12-29T08:30:45Z,42.805,6.029,13.3021,4.60069,2470.637,2022-12-29T10:36:47Z
2022-12-29T08:33:48Z,42.805,6.029,13.3024,4.60068,2470.646,2022-12-29T10:39:50Z
2022-12-29T08:36:51Z,42.805,6.029,13.3031,4.60076,2470.646,2022-12-29T10:42:53Z
2022-12-29T08:39:54Z,42.805,6.029,13.3033,4.60091,2470.646,2022-12-29T10:45:56Z
2022-12-29T08:42:57Z,42.805,6.029,13.3023,4.60087,2470.646,2022-12-29T10:49:00Z
2022-12-29T08:46:00Z,42.805,6.029,13.3024,4.60069,2470.67,2022-12-29T10:52:03Z
2022-12-29T08:49:03Z,42.805,6.029,13.3024,4.60070,2470.661,2022-12-29T10:55:06Z
2022-12-29T08:52:06Z,42.805,6.029,13.3029,4.60080,2470.693,2022-12-29T10:58:09Z
2022-12-29T08:55:09Z,42.805,6.029,13.3026,4.60074,2470.684,2022-12-29T11:01:12Z
2022-12-29T08:58:12Z,42.805,6.029,13.3034,4.60082,2470.707,2022-12-29T11:04:15Z
2022-12-29T09:01:16Z,42.805,6.029,13.3020,4.60070,2470.717,2022-12-29T11:07:18Z
2022-12-29T09:04:19Z,42.805,6.029,13.3024,4.60070,2470.67,2022-12-29T11:10:21Z
2022-12-29T09:07:22Z,42.805,6.029,13.3019,4.60070,2470.73,2022-12-29T11:13:24Z
2022-12-29T09:10:25Z,42.805,6.029,13.3019,4.60069,2470.717,2022-12-29T11:16:27Z
2022-12-29T09:13:28Z,42.805,6.029,13.3034,4.60088,2470.67,2022-12-29T11:19:31Z
2022-12-29T09:16:31Z,42.805,6.029,13.3019,4.60072,2470.707,2022-12-29T11:22:34Z
2022-12-29T09:19:34Z,42.805,6.029,13.3019,4.60069,2470.693,2022-12-29T11:25:37Z
2022-12-29T09:22:37Z,42.805,6.029,13.3019,4.60069,2470.717,2022-12-29T11:28:40Z
2022-12-29T09:25:40Z,42.805,6.029,13.3022,4.60072,2470.67,2022-12-29T11:31:43Z
2022-12-29T09:28:43Z,42.805,6.029,13.3021,4.60069,2470.74,2022-12-29T11:34:46Z
2022-12-29T09:31:46Z,42.805,6.029,13.3017,4.60069,2470.74,2022-12-29T11:37:49Z
2022-12-29T09:34:50Z,42.805,6.029,13.3017,4.60072,2470.693,2022-12-29T11:40:52Z
2022-12-29T09:37:53Z,42.805,6.029,13.3019,4.60069,2470.717,2022-12-29T11:43:55Z
2022-12-29T09:40:56Z,42.805,6.029,13.3020,4.60071,2470.717,2022-12-29T11:46:58Z
2022-12-29T09:43:59Z,42.805,6.029,13.3015,4.60068,2470.717,2022-12-29T11:50:01Z
2022-12-29T09:47:02Z,42.805,6.029,13.3020,4.60072,2470.754,2022-12-29T11:53:04Z
2022-12-29T09:50:05Z,42.805,6.029,13.3017,4.60069,2470.74,2022-12-29T11:56:08Z
2022-12-29T09:53:08Z,42.805,6.029,13.3017,4.60072,2470.74,2022-12-29T11:59:11Z
2022-12-29T09:56:11Z,42.805,6.029,13.3019,4.60072,2470.763,2022-12-29T12:02:14Z
2022-12-29T09:59:14Z,42.805,6.029,13.3018,4.60070,2470.73,2022-12-29T12:05:17Z
2022-12-29T10:02:17Z,42.805,6.029,13.3019,4.60068,2470.717,2022-12-29T12:08:20Z
2022-12-29T10:05:20Z,42.805,6.029,13.3019,4.60070,2470.754,2022-12-29T12:11:23Z
2022-12-29T10:08:23Z,42.805,6.029,13.3018,4.60068,2470.754,2022-12-29T12:14:26Z
2022-12-29T10:11:27Z,42.805,6.029,13.3016,4.60067,2470.74,2022-12-29T12:17:29Z
2022-12-29T10:14:30Z,42.805,6.029,13.3015,4.60068,2470.74,2022-12-29T12:20:32Z
2022-12-29T10:17:33Z,42.805,6.029,13.3021,4.60069,2470.717,2022-12-29T12:23:35Z
2022-12-29T10:20:36Z,42.805,6.029,13.3014,4.60067,2470.763,2022-12-29T12:26:38Z
2022-12-29T10:23:39Z,42.805,6.029,13.3014,4.60069,2470.74,2022-12-29T12:29:42Z
2022-12-29T10:26:42Z,42.805,6.029,13.3015,4.60069,2470.74,2022-12-29T12:32:45Z
2022-12-29T10:29:45Z,42.805,6.029,13.3017,4.60067,2470.777,2022-12-29T12:35:48Z
2022-12-29T10:32:48Z,42.805,6.029,13.3013,4.60067,2470.8,2022-12-29T12:38:51Z
2022-12-29T10:35:51Z,42.805,6.029,13.3022,4.60067,2470.754,2022-12-29T12:41:54Z
2022-12-29T10:38:54Z,42.805,6.029,13.3019,4.60067,2470.787,2022-12-29T12:44:57Z
2022-12-29T10:41:57Z,42.805,6.029,13.3015,4.60067,2470.787,2022-12-29T12:48:00Z
2022-12-29T10:45:01Z,42.805,6.029,13.3015,4.60068,2470.74,2022-12-29T12:51:03Z
2022-12-29T10:48:04Z,42.805,6.029,13.3017,4.60068,2470.763,2022-12-29T12:54:06Z
2022-12-29T10:51:07Z,42.805,6.029,13.3019,4.60068,2470.74,2022-12-29T12:57:09Z
2022-12-29T10:54:10Z,42.805,6.029,13.3020,4.60070,2470.74,2022-12-29T13:00:13Z
2022-12-29T10:57:13Z,42.805,6.029,13.3016,4.60070,2470.763,2022-12-29T13:03:16Z
2022-12-29T11:00:16Z,42.805,6.029,13.3017,4.60068,2470.777,2022-12-29T13:06:19Z
2022-12-29T11:03:19Z,42.805,6.029,13.3015,4.60067,2470.74,2022-12-29T13:09:22Z
2022-12-29T11:06:22Z,42.805,6.029,13.3017,4.60068,2470.74,2022-12-29T13:12:25Z
2022-12-29T11:09:25Z,42.805,6.029,13.3015,4.60068,2470.763,2022-12-29T13:15:28Z
2022-12-29T11:12:28Z,42.805,6.029,13.3018,4.60068,2470.763,2022-12-29T13:18:31Z
2022-12-29T11:15:31Z,42.805,6.029,13.3018,4.60069,2470.787,2022-12-29T13:21:34Z
2022-12-29T11:18:35Z,42.805,6.029,13.3020,4.60071,2470.8,2022-12-29T13:24:37Z
2022-12-29T11:21:38Z,42.805,6.029,13.3015,4.60069,2470.787,2022-12-29T13:27:40Z
2022-12-29T11:24:41Z,42.805,6.029,13.3018,4.60069,2470.8,2022-12-29T13:30:43Z
2022-12-29T11:27:44Z,42.805,6.029,13.3016,4.60068,2470.777,2022-12-29T13:33:47Z
2022-12-29T11:30:47Z,42.805,6.029,13.3016,4.60069,2470.763,2022-12-29T13:36:50Z
2022-12-29T11:33:50Z,42.805,6.029,13.3016,4.60068,2470.763,2022-12-29T13:39:53Z
2022-12-29T11:36:53Z,42.805,6.029,13.3016,4.60068,2470.763,2022-12-29T13:42:56Z
2022-12-29T11:39:56Z,42.805,6.029,13.3017,4.60067,2470.81,2022-12-29T13:45:59Z
2022-12-29T11:42:59Z,42.805,6.029,13.3015,4.60067,2470.787,2022-12-29T13:49:02Z
2022-12-29T11:46:02Z,42.805,6.029,13.3019,4.60068,2470.763,2022-12-29T13:52:05Z
2022-12-29T11:49:05Z,42.805,6.029,13.3018,4.60068,2470.777,2022-12-29T13:55:08Z
2022-12-29T11:52:09Z,42.805,6.029,13.3017,4.60069,2470.763,2022-12-29T13:58:11Z
2022-12-29T11:55:12Z,42.805,6.029,13.3020,4.60069,2470.777,2022-12-29T14:01:14Z
2022-12-29T11:58:15Z,42.805,6.029,13.3021,4.60068,2470.74,2022-12-29T14:04:17Z
2022-12-29T12:01:18Z,42.805,6.029,13.3015,4.60067,2470.8,2022-12-29T14:07:21Z
2022-12-29T12:04:21Z,42.805,6.029,13.3018,4.60066,2470.763,2022-12-29T14:10:24Z
2022-12-29T12:07:24Z,42.805,6.029,13.3019,4.60067,2470.787,2022-12-29T14:13:27Z
2022-12-29T12:10:27Z,42.805,6.029,13.3017,4.60067,2470.787,2022-12-29T14:16:30Z
2022-12-29T12:13:30Z,42.805,6.029,13.3019,4.60067,2470.81,2022-12-29T14:19:33Z
2022-12-29T12:16:33Z,42.805,6.029,13.3014,4.60067,2470.763,2022-12-29T14:22:36Z
2022-12-29T12:19:36Z,42.805,6.029,13.3016,4.60068,2470.763,2022-12-29T14:25:39Z
2022-12-29T12:22:40Z,42.805,6.029,13.3014,4.60067,2470.777,2022-12-29T14:28:42Z
2022-12-29T12:25:43Z,42.805,6.029,13.3015,4.60067,2470.787,2022-12-29T14:31:45Z
2022-12-29T12:28:46Z,42.805,6.029,13.3015,4.60066,2470.763,2022-12-29T14:34:48Z
2022-12-29T12:31:49Z,42.805,6.029,13.3017,4.60067,2470.777,2022-12-29T14:37:52Z
2022-12-29T12:34:52Z,42.805,6.029,13.3019,4.60067,2470.8,2022-12-29T14:40:55Z
2022-12-29T12:37:55Z,42.805,6.029,13.3017,4.60067,2470.787,2022-12-29T14:43:58Z
2022-12-29T12:40:58Z,42.805,6.029,13.3016,4.60067,2470.787,2022-12-29T14:47:01Z
2022-12-29T12:44:01Z,42.805,6.029,13.3018,4.60067,2470.763,2022-12-29T14:50:04Z
2022-12-29T12:47:04Z,42.805,6.029,13.3015,4.60067,2470.763,2022-12-29T14:53:07Z
2022-12-29T12:50:07Z,42.805,6.029,13.3011,4.60066,2470.763,2022-12-29T14:56:10Z
2022-12-29T12:53:10Z,42.805,6.029,13.3014,4.60066,2470.74,2022-12-29T14:59:13Z
2022-12-29T12:56:14Z,42.805,6.029,13.3019,4.60067,2470.754,2022-12-29T15:02:16Z
2022-12-29T12:59:17Z,42.805,6.029,13.3014,4.60065,2470.787,2022-12-29T15:05:19Z
2022-12-29T13:02:20Z,42.805,6.029,13.3015,4.60067,2470.754,2022-12-29T15:08:22Z
2022-12-29T13:05:23Z,42.805,6.029,13.3018,4.60066,2470.777,2022-12-29T15:11:26Z
2022-12-29T13:08:26Z,42.805,6.029,13.3015,4.60067,2470.777,2022-12-29T15:14:29Z
2022-12-29T13:11:29Z,42.805,6.029,13.3014,4.60065,2470.777,2022-12-29T15:17:32Z
2022-12-29T13:14:32Z,42.805,6.029,13.3014,4.60065,2470.787,2022-12-29T15:20:35Z
2022-12-29T13:17:35Z,42.805,6.029,13.3015,4.60067,2470.754,2022-12-29T15:23:38Z
2022-12-29T13:20:38Z,42.805,6.029,13.3012,4.60064,2470.763,2022-12-29T15:26:41Z
2022-12-29T13:23:41Z,42.805,6.029,13.3014,4.60067,2470.763,2022-12-29T15:29:44Z
2022-12-29T13:26:44Z,42.805,6.029,13.3014,4.60067,2470.74,2022-12-29T15:32:47Z
2022-12-29T13:29:48Z,42.805,6.029,13.3016,4.60067,2470.754,2022-12-29T15:35:50Z
2022-12-29T13:32:51Z,42.805,6.029,13.3017,4.60066,2470.763,2022-12-29T15:38:53Z
2022-12-29T13:35:54Z,42.805,6.029,13.3017,4.60065,2470.754,2022-12-29T15:41:56Z
2022-12-29T13:38:57Z,42.805,6.029,13.3016,4.60066,2470.763,2022-12-29T15:45:00Z
2022-12-29T13:42:00Z,42.805,6.029,13.3015,4.60066,2470.763,2022-12-29T15:48:03Z
2022-12-29T13:45:03Z,42.805,6.029,13.3016,4.60066,2470.717,2022-12-29T15:51:06Z
2022-12-29T13:48:06Z,42.805,6.029,13.3011,4.60066,2470.777,2022-12-29T15:54:09Z
2022-12-29T13:51:09Z,42.805,6.029,13.3019,4.60067,2470.754,2022-12-29T15:57:12Z
2022-12-29T13:54:12Z,42.805,6.029,13.3015,4.60065,2470.754,2022-12-29T16:00:15Z
2022-12-29T13:57:15Z,42.805,6.029,13.3017,4.60066,2470.763,2022-12-29T16:03:18Z
2022-12-29T14:00:18Z,42.805,6.029,13.3013,4.60065,2470.73,2022-12-29T16:06:21Z
2022-12-29T14:03:22Z,42.805,6.029,13.3014,4.60065,2470.726,2022-12-29T16:09:24Z
2022-12-29T14:06:25Z,42.805,6.029,13.3013,4.60065,2470.693,2022-12-29T16:12:27Z
2022-12-29T14:09:28Z,42.805,6.029,13.3016,4.60066,2470.74,2022-12-29T16:15:30Z
2022-12-29T14:12:31Z,42.805,6.029,13.3018,4.60065,2470.754,2022-12-29T16:18:34Z
2022-12-29T14:15:34Z,42.805,6.029,13.3014,4.60066,2470.74,2022-12-29T16:21:37Z
2022-12-29T14:18:37Z,42.805,6.029,13.3016,4.60066,2470.74,2022-12-29T16:24:40Z
2022-12-29T14:21:40Z,42.805,6.029,13.3016,4.60065,2470.754,2022-12-29T16:27:43Z
2022-12-29T14:24:43Z,42.805,6.029,13.3017,4.60066,2470.717,2022-12-29T16:30:46Z
2022-12-29T14:27:46Z,42.805,6.029,13.3015,4.60066,2470.717,2022-12-29T16:33:49Z
2022-12-29T14:30:49Z,42.805,6.029,13.3015,4.60067,2470.73,2022-12-29T16:36:52Z
2022-12-29T14:33:52Z,42.805,6.029,13.3016,4.60066,2470.707,2022-12-29T16:39:55Z
2022-12-29T14:36:56Z,42.805,6.029,13.3014,4.60066,2470.763,2022-12-29T16:42:58Z
2022-12-29T14:39:59Z,42.805,6.029,13.3015,4.60066,2470.73,2022-12-29T16:46:01Z
2022-12-29T14:43:02Z,42.805,6.029,13.3018,4.60065,2470.73,2022-12-29T16:49:04Z
2022-12-29T14:46:05Z,42.805,6.029,13.3015,4.60066,2470.717,2022-12-29T16:52:08Z
2022-12-29T14:49:08Z,42.805,6.029,13.3015,4.60064,2470.717,2022-12-29T16:55:11Z
2022-12-29T14:52:11Z,42.805,6.029,13.3016,4.60065,2470.73,2022-12-29T16:58:14Z
2022-12-29T14:55:14Z,42.805,6.029,13.3015,4.60065,2470.717,2022-12-29T17:01:17Z
2022-12-29T14:58:17Z,42.805,6.029,13.3019,4.60064,2470.67,2022-12-29T17:04:20Z
2022-12-29T15:01:20Z,42.805,6.029,13.3015,4.60064,2470.74,2022-12-29T17:07:23Z